This demonstration page uses our WeatherBlox Daily Observations layout. Learn more.

Left ArrowRight Arrow

41.86663, -103.66717

Hourly Observations for July 26, 2020

Temp ( °F °C ) Dew Point ( °F °C ) Humidity (%) Winds ( mph kmh ) Pressure ( in mb ) Visibility ( mi km ) Precip ( " mm )
12:53 am 00:53 Clear 70 21.1 62 16.7 76 76 N N/A 29.89 1012 10 16 N/A
1:53 am 01:53 Clear 71 21.7 62 16.7 73 73 E 6 9 29.89 1012 10 16 N/A
2:53 am 02:53 Clear 70 21.1 62 16.7 76 76 ESE 6 9 29.89 1012 10 16 N/A
3:53 am 03:53 Clear 69 20.6 62 16.7 78 78 N N/A 29.91 1013 10 16 N/A
4:53 am 04:53 Clear 69 20.6 59 15 70 70 NNE 13 20 29.92 1013 10 16 N/A
5:53 am 05:53 Sunny 67 19.4 60 15.6 79 79 NE 10 17 29.96 1014 10 16 N/A
6:53 am 06:53 Sunny 68 20 61 16.1 78 78 NNE 6 9 29.98 1015 10 16 N/A
7:53 am 07:53 Sunny 70 21.1 61 16.1 73 73 NNE 9 15 30.01 1016 10 16 N/A
8:53 am 08:53 Sunny 71 21.7 62 16.7 73 73 NE 10 17 30.03 1017 10 16 N/A
9:42 am 09:42 Mostly Cloudy 72 22.2 62 16.7 71 71 NNE 14 22 29.98 1015 10 16 N/A
9:53 am 09:53 Cloudy 71 21.7 62 16.7 73 73 NE 12 19 30.06 1018 10 16 N/A
10:48 am 10:48 Cloudy 70 21 63 17 78 78 NE 12 19 30.02 1016 10 16 N/A
10:53 am 10:53 Cloudy 69 20.6 62 16.7 78 78 NNE 13 20 30.09 1019 10 16 N/A
11:20 am 11:20 Cloudy 72 22 63 17 73 73 E 7 11 30.00 1016 10 16 N/A
11:53 am 11:53 Cloudy 71 21.7 63 17.2 76 76 ESE 6 9 30.11 1020 10 16 N/A
12:53 pm 12:53 Cloudy with Light Rain 72 22.2 64 17.8 76 76 undefined N/A 30.10 1019 10 16 0.00 0.00
1:53 pm 13:53 Cloudy 75 23.9 64 17.8 69 69 SSE 9 15 30.09 1019 10 16 0.00 0.00
2:05 pm 14:05 Cloudy 75 23.9 64 17.8 69 69 SE 6 9 29.98 1015 10 16 N/A
2:53 pm 14:53 Mostly Cloudy 81 27.2 64 17.8 57 57 ESE 14 22 30.07 1018 10 16 N/A
3:53 pm 15:53 Mostly Cloudy 80 26.7 63 17.2 56 56 E 8 13 30.06 1018 10 16 N/A
4:53 pm 16:53 Sunny 81 27.2 63 17.2 54 54 SSE 8 13 30.05 1018 10 16 N/A
5:53 pm 17:53 Sunny 80 26.7 63 17.2 56 56 ESE 7 11 30.03 1017 10 16 N/A
6:53 pm 18:53 Sunny 80 26.7 63 17.2 56 56 ESE 7 11 30.04 1017 10 16 N/A
7:53 pm 19:53 Sunny 78 25.6 63 17.2 60 60 SSE 6 9 30.04 1017 10 16 N/A
8:53 pm 20:53 Clear 72 22.2 65 18.3 79 79 NE 3 6 30.07 1018 10 16 N/A
9:53 pm 21:53 Clear 69 20.6 63 17.2 81 81 ENE 5 7 30.10 1019 10 16 N/A
10:53 pm 22:53 Clear 69 20.6 62 16.7 78 78 E 8 13 30.11 1020 10 16 N/A
11:53 pm 23:53 Mostly Clear 67 19.4 62 16.7 84 84 E 8 13 30.11 1020 10 16 N/A

Powered by AerisWeather